TimeEST,TemperatureF,Dew PointF,Humidity,Sea Level PressureIn,VisibilityMPH,Wind Direction,Wind SpeedMPH,Gust SpeedMPH,PrecipitationIn,Events,Conditions,WindDirDegrees,DateUTC
12:53 AM,35.1,30.0,82,30.26,10.0,West,4.6,-,N/A,,Overcast,280,2013-01-07 05:53:00
1:12 AM,33.8,28.4,81,30.24,10.0,West,6.9,-,N/A,,Overcast,280,2013-01-07 06:12:00
1:36 AM,33.8,26.6,75,30.25,10.0,West,5.8,-,N/A,,Overcast,270,2013-01-07 06:36:00
1:53 AM,33.1,27.0,78,30.29,10.0,West,9.2,-,N/A,,Overcast,270,2013-01-07 06:53:00
2:53 AM,32.0,27.0,82,30.32,9.0,WNW,4.6,-,N/A,,Overcast,290,2013-01-07 07:53:00
3:53 AM,32.0,26.1,79,30.35,7.0,West,8.1,-,N/A,,Overcast,280,2013-01-07 08:53:00
4:53 AM,30.9,26.1,82,30.36,7.0,WNW,4.6,-,N/A,,Overcast,290,2013-01-07 09:53:00
5:02 AM,30.2,24.8,80,30.32,7.0,WNW,5.8,-,N/A,,Overcast,290,2013-01-07 10:02:00
5:53 AM,30.9,25.0,79,30.37,7.0,West,3.5,-,N/A,,Overcast,280,2013-01-07 10:53:00
6:53 AM,30.9,25.0,79,30.39,7.0,West,6.9,-,N/A,,Overcast,280,2013-01-07 11:53:00
7:53 AM,32.0,25.0,75,30.42,7.0,SW,4.6,-,N/A,,Overcast,220,2013-01-07 12:53:00
8:53 AM,32.0,25.0,75,30.46,5.0,WSW,4.6,-,N/A,,Haze,250,2013-01-07 13:53:00
9:53 AM,32.0,26.1,79,30.48,5.0,SW,5.8,-,N/A,,Haze,230,2013-01-07 14:53:00
10:06 AM,32.0,26.6,80,30.45,5.0,SW,5.8,-,N/A,,Haze,220,2013-01-07 15:06:00
10:18 AM,32.0,24.8,75,30.45,5.0,SW,6.9,-,N/A,,Haze,220,2013-01-07 15:18:00
10:53 AM,32.0,26.1,79,30.50,6.0,SSW,4.6,-,N/A,,Haze,210,2013-01-07 15:53:00
11:53 AM,33.1,25.0,72,30.48,6.0,WSW,4.6,-,N/A,,Haze,250,2013-01-07 16:53:00
12:06 PM,33.8,26.6,75,30.43,6.0,Variable,4.6,-,N/A,,Haze,0,2013-01-07 17:06:00
12:53 PM,33.1,23.0,66,30.45,9.0,WSW,10.4,-,N/A,,Overcast,250,2013-01-07 17:53:00
1:53 PM,33.1,24.1,70,30.43,9.0,WSW,8.1,-,N/A,,Overcast,240,2013-01-07 18:53:00
2:53 PM,32.0,23.0,69,30.43,9.0,Variable,3.5,-,N/A,,Overcast,0,2013-01-07 19:53:00
3:53 PM,32.0,23.0,69,30.43,10.0,SW,8.1,-,N/A,,Overcast,220,2013-01-07 20:53:00
4:36 PM,32.0,23.0,69,30.38,10.0,SSE,5.8,-,N/A,,Scattered Clouds,160,2013-01-07 21:36:00
4:53 PM,32.0,23.0,69,30.43,10.0,SSW,3.5,-,N/A,,Clear,200,2013-01-07 21:53:00
6:53 PM,28.0,21.9,78,30.40,9.0,Calm,Calm,-,N/A,,Clear,0,2013-01-07 23:53:00
7:53 PM,28.0,21.9,78,30.39,8.0,Calm,Calm,-,N/A,,Clear,0,2013-01-08 00:53:00
8:53 PM,25.0,21.0,85,30.39,8.0,Calm,Calm,-,N/A,,Clear,0,2013-01-08 01:53:00
9:53 PM,24.1,19.9,84,30.37,8.0,Calm,Calm,-,N/A,,Clear,0,2013-01-08 02:53:00
10:53 PM,23.0,21.0,92,30.34,7.0,South,3.5,-,N/A,,Clear,170,2013-01-08 03:53:00
11:53 PM,25.0,21.9,88,30.32,8.0,Calm,Calm,-,N/A,,Clear,0,2013-01-08 04:53:00